| time (UTC) | temp F | wind direction | speed MPH | gust MPH | rain 1hr in | rain 24hr in | rain mn in | humidity % | barometer mb |
| 20260507155401 | 61 | 203 | 24.0 | 34.0 | 0.00 | 0.00 | 0.00 | 55 | 1005.7 |
| 20260507154851 | 61 | 225 | 23.0 | 34.0 | 0.00 | 0.00 | 0.00 | 55 | 1005.9 |
| 20260507154340 | 61 | 225 | 23.0 | 30.0 | 0.00 | 0.00 | 0.00 | 57 | 1006.3 |
| 20260507153830 | 60 | 225 | 20.0 | 31.0 | 0.00 | 0.00 | 0.00 | 58 | 1006.0 |
| 20260507153321 | 59 | 225 | 24.0 | 32.0 | 0.00 | 0.00 | 0.00 | 58 | 1006.0 |
| 20260507152810 | 59 | 225 | 22.0 | 32.0 | 0.00 | 0.00 | 0.00 | 59 | 1006.2 |
| 20260507152300 | 59 | 225 | 23.0 | 31.0 | 0.00 | 0.00 | 0.00 | 59 | 1006.4 |
| 20260507151750 | 59 | 225 | 21.0 | 31.0 | 0.00 | 0.00 | 0.00 | 59 | 1006.1 |
| 20260507151239 | 58 | 225 | 23.0 | 31.0 | 0.00 | 0.00 | 0.00 | 59 | 1005.9 |
| 20260507150730 | 59 | 225 | 23.0 | 31.0 | 0.00 | 0.00 | 0.00 | 59 | 1005.7 |
| 20260507150219 | 58 | 225 | 21.0 | 32.0 | 0.00 | 0.00 | 0.00 | 58 | 1005.8 |
| 20260507145709 | 58 | 225 | 22.0 | 32.0 | 0.00 | 0.00 | 0.00 | 58 | 1005.6 |
| 20260507145200 | 59 | 225 | 21.0 | 31.0 | 0.00 | 0.00 | 0.00 | 59 | 1005.6 |
| 20260507144649 | 58 | 225 | 23.0 | 30.0 | 0.00 | 0.00 | 0.00 | 59 | 1006.0 |
| 20260507144138 | 58 | 225 | 19.0 | 27.0 | 0.00 | 0.00 | 0.00 | 60 | 1006.0 |
| 20260507143629 | 58 | 225 | 21.0 | 27.0 | 0.00 | 0.00 | 0.00 | 60 | 1006.2 |
| 20260507143119 | 58 | 225 | 17.0 | 27.0 | 0.00 | 0.00 | 0.00 | 60 | 1006.3 |
| 20260507142840 | 58 | 225 | 21.0 | 29.0 | 0.00 | 0.00 | 0.00 | 60 | 1006.5 |
| 20260507142614 | 58 | 225 | 21.0 | 29.0 | 0.00 | 0.00 | 0.00 | 60 | 1006.5 |
| 20260507142058 | 58 | 203 | 19.0 | 29.0 | 0.00 | 0.00 | 0.00 | 60 | 1006.3 |
| 20260507141548 | 58 | 225 | 19.0 | 29.0 | 0.00 | 0.00 | 0.00 | 61 | 1006.3 |
| 20260507141038 | 57 | 225 | 21.0 | 30.0 | 0.00 | 0.00 | 0.00 | 61 | 1006.1 |
| 20260507140528 | 57 | 225 | 18.0 | 31.0 | 0.00 | 0.00 | 0.00 | 61 | 1006.3 |
| 20260507140018 | 57 | 203 | 22.0 | 31.0 | 0.00 | 0.00 | 0.00 | 61 | 1006.3 |
| 20260507135513 | 57 | 248 | 18.0 | 29.0 | 0.00 | 0.00 | 0.00 | 61 | 1006.2 |
| 20260507134957 | 57 | 203 | 18.0 | 30.0 | 0.00 | 0.00 | 0.00 | 61 | 1005.9 |
| 20260507134447 | 57 | 225 | 23.0 | 34.0 | 0.00 | 0.00 | 0.00 | 61 | 1005.7 |
| 20260507133937 | 57 | 225 | 21.0 | 34.0 | 0.00 | 0.00 | 0.00 | 61 | 1005.7 |
| 20260507133427 | 57 | 225 | 23.0 | 31.0 | 0.00 | 0.00 | 0.00 | 60 | 1005.2 |
| 20260507132919 | 58 | 225 | 21.0 | 31.0 | 0.00 | 0.00 | 0.00 | 60 | 1004.8 |
| 20260507132406 | 58 | 225 | 22.0 | 30.0 | 0.00 | 0.00 | 0.00 | 60 | 1005.0 |
| 20260507131856 | 58 | 203 | 25.0 | 32.0 | 0.00 | 0.00 | 0.00 | 60 | 1004.3 |
| 20260507131346 | 58 | 225 | 23.0 | 32.0 | 0.00 | 0.00 | 0.00 | 60 | 1004.2 |
| 20260507130849 | 58 | 225 | 21.0 | 32.0 | 0.00 | 0.00 | 0.00 | 60 | 1004.8 |
| 20260507130326 | 58 | 225 | 20.0 | 31.0 | 0.00 | 0.00 | 0.00 | 62 | 1004.3 |
| 20260507125815 | 57 | 225 | 26.0 | 31.0 | 0.00 | 0.00 | 0.00 | 61 | 1004.8 |
| 20260507125307 | 57 | 225 | 22.0 | 31.0 | 0.00 | 0.00 | 0.00 | 62 | 1004.7 |
| 20260507124755 | 57 | 248 | 21.0 | 34.0 | 0.00 | 0.00 | 0.00 | 63 | 1005.0 |
| 20260507124246 | 57 | 225 | 21.0 | 34.0 | 0.00 | 0.00 | 0.00 | 63 | 1004.8 |
| 20260507123735 | 57 | 225 | 18.0 | 29.0 | 0.00 | 0.00 | 0.00 | 64 | 1004.7 |
| 20260507123226 | 57 | 225 | 21.0 | 29.0 | 0.00 | 0.00 | 0.00 | 65 | 1004.8 |
| 20260507122716 | 57 | 225 | 21.0 | 31.0 | 0.00 | 0.00 | 0.00 | 65 | 1004.3 |
| 20260507122205 | 57 | 248 | 19.0 | 31.0 | 0.00 | 0.00 | 0.00 | 66 | 1004.5 |
| 20260507121655 | 57 | 225 | 21.0 | 27.0 | 0.00 | 0.00 | 0.00 | 66 | 1004.3 |
| 20260507121145 | 57 | 203 | 18.0 | 25.0 | 0.00 | 0.00 | 0.00 | 67 | 1004.4 |
| 20260507120635 | 57 | 225 | 19.0 | 25.0 | 0.00 | 0.00 | 0.00 | 67 | 1004.2 |
| 20260507120128 | 57 | 225 | 18.0 | 25.0 | 0.00 | 0.00 | 0.00 | 67 | 1004.4 |
| 20260507115614 | 57 | 225 | 16.0 | 24.0 | 0.00 | 0.00 | 0.00 | 67 | 1004.3 |
| 20260507115106 | 57 | 225 | 20.0 | 23.0 | 0.00 | 0.00 | 0.00 | 66 | 1004.5 |
| 20260507114554 | 57 | 225 | 17.0 | 23.0 | 0.00 | 0.00 | 0.00 | 67 | 1004.5 |
| 20260507114043 | 57 | 225 | 14.0 | 18.0 | 0.00 | 0.00 | 0.00 | 67 | 1005.1 |
| 20260507113534 | 57 | 248 | 15.0 | 18.0 | 0.00 | 0.00 | 0.00 | 66 | 1005.4 |
| 20260507113033 | 57 | 225 | 14.0 | 17.0 | 0.00 | 0.00 | 0.00 | 66 | 1005.1 |
| 20260507112519 | 57 | 203 | 11.0 | 23.0 | 0.00 | 0.00 | 0.00 | 66 | 1005.6 |
| 20260507112004 | 57 | 203 | 13.0 | 23.0 | 0.00 | 0.00 | 0.00 | 66 | 1005.2 |
| 20260507111454 | 57 | 203 | 15.0 | 21.0 | 0.00 | 0.00 | 0.00 | 66 | 1005.1 |
| 20260507110943 | 57 | 203 | 15.0 | 23.0 | 0.00 | 0.00 | 0.00 | 66 | 1004.6 |
| 20260507110432 | 57 | 203 | 18.0 | 23.0 | 0.00 | 0.00 | 0.00 | 66 | 1005.0 |
| 20260507105924 | 57 | 203 | 15.0 | 23.0 | 0.00 | 0.00 | 0.00 | 67 | 1005.0 |
| 20260507105412 | 58 | 180 | 17.0 | 23.0 | 0.00 | 0.00 | 0.00 | 66 | 1005.3 |
| 20260507104902 | 58 | 180 | 15.0 | 23.0 | 0.00 | 0.00 | 0.00 | 65 | 1005.6 |
| 20260507104352 | 58 | 203 | 17.0 | 25.0 | 0.00 | 0.00 | 0.00 | 65 | 1005.5 |
| 20260507103842 | 58 | 203 | 15.0 | 25.0 | 0.00 | 0.00 | 0.00 | 65 | 1006.0 |
| 20260507103332 | 58 | 203 | 19.0 | 24.0 | 0.00 | 0.00 | 0.00 | 64 | 1005.7 |
| 20260507102823 | 58 | 203 | 17.0 | 23.0 | 0.00 | 0.00 | 0.00 | 65 | 1005.5 |
| 20260507102312 | 58 | 203 | 11.0 | 22.0 | 0.00 | 0.00 | 0.00 | 65 | 1005.6 |
| 20260507101801 | 58 | 203 | 11.0 | 22.0 | 0.00 | 0.00 | 0.00 | 65 | 1005.5 |
| 20260507101253 | 58 | 203 | 17.0 | 23.0 | 0.00 | 0.00 | 0.00 | 65 | 1005.5 |
| 20260507100741 | 59 | 203 | 17.0 | 23.0 | 0.00 | 0.00 | 0.00 | 64 | 1005.2 |
| 20260507100231 | 58 | 203 | 10.0 | 23.0 | 0.00 | 0.00 | 0.00 | 65 | 1005.4 |
| 20260507095722 | 59 | 203 | 17.0 | 23.0 | 0.00 | 0.00 | 0.00 | 64 | 1005.8 |
| 20260507095211 | 59 | 203 | 14.0 | 27.0 | 0.00 | 0.00 | 0.00 | 65 | 1006.2 |
| 20260507094702 | 59 | 225 | 17.0 | 27.0 | 0.00 | 0.00 | 0.00 | 63 | 1005.8 |
| 20260507094151 | 59 | 203 | 17.0 | 27.0 | 0.00 | 0.00 | 0.00 | 63 | 1005.7 |
| 20260507093641 | 59 | 203 | 18.0 | 27.0 | 0.00 | 0.00 | 0.00 | 64 | 1005.5 |
| 20260507093143 | 59 | 225 | 17.0 | 29.0 | 0.00 | 0.00 | 0.00 | 64 | 1005.3 |
| 20260507092622 | 59 | 225 | 15.0 | 29.0 | 0.00 | 0.00 | 0.00 | 65 | 1005.4 |
| 20260507092110 | 60 | 203 | 17.0 | 24.0 | 0.00 | 0.00 | 0.00 | 66 | 1005.2 |
| 20260507091613 | 60 | 225 | 17.0 | 24.0 | 0.00 | 0.00 | 0.00 | 66 | 1005.0 |
| 20260507091049 | 60 | 180 | 17.0 | 23.0 | 0.00 | 0.00 | 0.00 | 68 | 1005.1 |
| 20260507090552 | 60 | 203 | 17.0 | 23.0 | 0.00 | 0.00 | 0.00 | 69 | 1005.5 |
| 20260507090030 | 60 | 203 | 15.0 | 22.0 | 0.00 | 0.00 | 0.00 | 71 | 1005.3 |
| 20260507085520 | 60 | 203 | 15.0 | 24.0 | 0.00 | 0.00 | 0.00 | 72 | 1005.5 |
| 20260507085009 | 60 | 203 | 17.0 | 24.0 | 0.00 | 0.00 | 0.00 | 73 | 1005.7 |
| 20260507084458 | 60 | 180 | 17.0 | 23.0 | 0.00 | 0.00 | 0.00 | 74 | 1005.4 |
| 20260507083948 | 61 | 225 | 17.0 | 27.0 | 0.00 | 0.00 | 0.00 | 75 | 1005.4 |
| 20260507083438 | 61 | 203 | 18.0 | 27.0 | 0.00 | 0.00 | 0.00 | 76 | 1005.3 |
| 20260507082928 | 61 | 203 | 18.0 | 30.0 | 0.00 | 0.00 | 0.00 | 76 | 1005.1 |
| 20260507082422 | 61 | 203 | 17.0 | 32.0 | 0.00 | 0.00 | 0.00 | 77 | 1004.9 |
| 20260507081909 | 61 | 203 | 24.0 | 34.0 | 0.00 | 0.00 | 0.00 | 78 | 1005.1 |
| 20260507081358 | 61 | 203 | 22.0 | 34.0 | 0.00 | 0.00 | 0.00 | 78 | 1005.1 |
| 20260507080848 | 62 | 203 | 23.0 | 34.0 | 0.00 | 0.00 | 0.00 | 79 | 1005.2 |
| 20260507080337 | 62 | 203 | 19.0 | 24.0 | 0.00 | 0.00 | 0.00 | 85 | 1005.3 |
| 20260507075828 | 62 | 203 | 15.0 | 23.0 | 0.00 | 0.00 | 0.00 | 88 | 1005.1 |
| 20260507075324 | 62 | 225 | 16.0 | 23.0 | 0.00 | 0.00 | 0.00 | 89 | 1005.1 |
| 20260507074807 | 63 | 225 | 15.0 | 23.0 | 0.00 | 0.00 | 0.00 | 91 | 1004.9 |
| 20260507074258 | 63 | 203 | 15.0 | 23.0 | 0.00 | 0.00 | 0.00 | 92 | 1005.0 |
| 20260507073747 | 63 | 203 | 11.0 | 20.0 | 0.00 | 0.00 | 0.00 | 92 | 1005.0 |
| 20260507073237 | 63 | 248 | 11.0 | 16.0 | 0.00 | 0.00 | 0.00 | 92 | 1005.1 |
| 20260507072727 | 62 | 203 | 11.0 | 14.0 | 0.00 | 0.00 | 0.00 | 93 | 1005.3 |
| 20260507072221 | 62 | 225 | 8.0 | 13.0 | 0.00 | 0.00 | 0.00 | 93 | 1005.3 |
| 20260507071720 | 62 | 225 | 7.0 | 11.0 | 0.00 | 0.00 | 0.00 | 93 | 1005.6 |
| 20260507071157 | 62 | 203 | 7.0 | 11.0 | 0.00 | 0.00 | 0.00 | 93 | 1005.4 |
| 20260507070646 | 62 | 203 | 8.0 | 11.0 | 0.00 | 0.00 | 0.00 | 93 | 1005.3 |
| 20260507070136 | 62 | 203 | 7.0 | 11.0 | 0.00 | 0.00 | 0.00 | 93 | 1004.8 |
| 20260507065635 | 62 | 203 | 6.0 | 11.0 | 0.00 | 0.00 | 0.00 | 93 | 1004.6 |
| 20260507065129 | 62 | 225 | 8.0 | 11.0 | 0.00 | 0.00 | 0.00 | 93 | 1004.1 |
| 20260507064605 | 62 | 203 | 6.0 | 11.0 | 0.00 | 0.00 | 0.00 | 93 | 1004.1 |
| 20260507064055 | 62 | 203 | 7.0 | 13.0 | 0.00 | 0.00 | 0.00 | 93 | 1003.9 |
| 20260507063557 | 62 | 203 | 6.0 | 13.0 | 0.00 | 0.00 | 0.00 | 92 | 1004.1 |
| 20260507063037 | 62 | 203 | 9.0 | 13.0 | 0.00 | 0.00 | 0.00 | 93 | 1003.8 |
| 20260507062525 | 62 | 203 | 9.0 | 13.0 | 0.00 | 0.00 | 0.00 | 92 | 1004.0 |
| 20260507062028 | 62 | 203 | 9.0 | 14.0 | 0.00 | 0.00 | 0.00 | 92 | 1003.7 |
| 20260507061504 | 62 | 203 | 8.0 | 14.0 | 0.00 | 0.00 | 0.00 | 92 | 1003.9 |
| 20260507060954 | 62 | 203 | 8.0 | 11.0 | 0.00 | 0.00 | 0.00 | 92 | 1003.9 |
| 20260507060445 | 62 | 203 | 9.0 | 11.0 | 0.00 | 0.00 | 0.00 | 92 | 1003.9 |
| 20260507055934 | 62 | 203 | 7.0 | 8.0 | 0.00 | 0.00 | 0.00 | 92 | 1003.8 |
| 20260507055424 | 62 | 180 | 5.0 | 8.0 | 0.00 | 0.00 | 0.00 | 92 | 1003.6 |
| 20260507054915 | 62 | 203 | 4.0 | 8.0 | 0.00 | 0.00 | 0.00 | 91 | 1003.7 |
| 20260507054403 | 62 | 203 | 4.0 | 8.0 | 0.00 | 0.00 | 0.00 | 91 | 1003.5 |
| 20260507053854 | 62 | 203 | 4.0 | 8.0 | 0.00 | 0.00 | 0.00 | 90 | 1003.3 |
| 20260507053343 | 63 | 203 | 6.0 | 9.0 | 0.00 | 0.00 | 0.00 | 89 | 1003.3 |
| 20260507052834 | 64 | 203 | 5.0 | 14.0 | 0.00 | 0.00 | 0.00 | 89 | 1003.4 |
| 20260507052324 | 64 | 203 | 7.0 | 14.0 | 0.00 | 0.00 | 0.00 | 89 | 1002.8 |
| 20260507051813 | 64 | 203 | 9.0 | 13.0 | 0.00 | 0.00 | 0.00 | 88 | 1002.6 |
| 20260507051303 | 64 | 203 | 8.0 | 11.0 | 0.00 | 0.00 | 0.00 | 88 | 1002.2 |
| 20260507050753 | 64 | 225 | 8.0 | 13.0 | 0.00 | 0.00 | 0.00 | 88 | 1002.6 |
| 20260507050243 | 64 | 225 | 9.0 | 13.0 | 0.00 | 0.00 | 0.00 | 88 | 1002.0 |
| 20260507045732 | 64 | 203 | 10.0 | 14.0 | 0.00 | 0.00 | 0.00 | 88 | 1001.7 |
| 20260507045223 | 65 | 225 | 9.0 | 14.0 | 0.00 | 0.00 | 0.00 | 87 | 1001.8 |
| 20260507044712 | 65 | 225 | 8.0 | 14.0 | 0.00 | 0.00 | 0.00 | 86 | 1002.0 |
| 20260507044203 | 65 | 248 | 9.0 | 14.0 | 0.00 | 0.00 | 0.00 | 87 | 1002.2 |
| 20260507043652 | 65 | 270 | 8.0 | 14.0 | 0.00 | 0.00 | 0.00 | 86 | 1002.1 |
| 20260507043142 | 65 | 248 | 8.0 | 11.0 | 0.00 | 0.00 | 0.00 | 87 | 1001.9 |
| 20260507042632 | 65 | 248 | 4.0 | 6.0 | 0.00 | 0.00 | 0.00 | 88 | 1002.2 |
| 20260507042122 | 65 | 225 | 3.0 | 6.0 | 0.00 | 0.00 | 0.00 | 87 | 1002.6 |
| 20260507041615 | 65 | 248 | 2.0 | 4.0 | 0.00 | 0.00 | 0.00 | 86 | 1002.9 |
| 20260507041102 | 66 | 248 | 2.0 | 4.0 | 0.00 | 0.00 | 0.00 | 85 | 1003.5 |
| 20260507040552 | 67 | 225 | 2.0 | 4.0 | 0.00 | 0.00 | 0.00 | 83 | 1003.3 |
| 20260507040104 | 67 | 180 | 2.0 | 4.0 | 0.00 | 0.00 | 0.00 | 83 | 1003.7 |
| 20260507035531 | 67 | 225 | 0.0 | 0.0 | 0.00 | 0.00 | 0.00 | 84 | 1004.1 |
| 20260507035024 | 67 | 225 | 0.0 | 2.0 | 0.00 | 0.00 | 0.00 | 83 | 1004.0 |
| 20260507034515 | 68 | 158 | 0.0 | 4.0 | 0.00 | 0.00 | 0.00 | 83 | 1003.8 |
| 20260507034001 | 68 | 158 | 1.0 | 4.0 | 0.00 | 0.00 | 0.00 | 83 | 1003.5 |
| 20260507033451 | 68 | 158 | 2.0 | 7.0 | 0.00 | 0.00 | 0.00 | 83 | 1003.0 |
| 20260507032941 | 68 | 180 | 2.0 | 9.0 | 0.00 | 0.00 | 0.00 | 83 | 1003.3 |
| 20260507032430 | 68 | 203 | 5.0 | 11.0 | 0.00 | 0.00 | 0.00 | 83 | 1002.3 |
| 20260507031920 | 68 | 180 | 8.0 | 11.0 | 0.00 | 0.00 | 0.00 | 83 | 1001.7 |
| 20260507031416 | 68 | 203 | 6.0 | 13.0 | 0.00 | 0.00 | 0.00 | 82 | 1003.0 |
| 20260507030859 | 69 | 203 | 6.0 | 18.0 | 0.00 | 0.00 | 0.00 | 82 | 1002.7 |
| 20260507030349 | 69 | 203 | 11.0 | 18.0 | 0.00 | 0.00 | 0.00 | 82 | 1002.5 |
| 20260507025839 | 69 | 203 | 15.0 | 18.0 | 0.00 | 0.00 | 0.00 | 81 | 1001.8 |
| 20260507025329 | 69 | 225 | 12.0 | 18.0 | 0.00 | 0.00 | 0.00 | 82 | 1001.7 |
| 20260507024819 | 70 | 203 | 13.0 | 18.0 | 0.00 | 0.00 | 0.00 | 84 | 1000.8 |
| 20260507024309 | 71 | 203 | 14.0 | 20.0 | 0.00 | 0.00 | 0.00 | 83 | 1000.9 |
| 20260507023759 | 71 | 225 | 14.0 | 20.0 | 0.00 | 0.00 | 0.00 | 86 | 1002.0 |
| 20260507023248 | 71 | 225 | 15.0 | 18.0 | 0.00 | 0.00 | 0.00 | 87 | 1001.9 |
| 20260506222813 | 76 | 248 | 4.0 | 6.0 | 0.00 | 0.00 | 0.00 | 81 | 1001.1 |
| 20260506222305 | 76 | 270 | 3.0 | 4.0 | 0.00 | 0.00 | 0.00 | 82 | 1001.0 |
| 20260506221753 | 76 | 270 | 2.0 | 2.0 | 0.00 | 0.00 | 0.00 | 82 | 1000.9 |
| 20260506221242 | 76 | 270 | 2.0 | 4.0 | 0.00 | 0.00 | 0.00 | 81 | 1000.9 |
| 20260506220732 | 76 | 270 | 2.0 | 4.0 | 0.00 | 0.00 | 0.00 | 81 | 1000.9 |
| 20260506220222 | 76 | 293 | 2.0 | 4.0 | 0.00 | 0.00 | 0.00 | 81 | 1000.8 |
| 20260506215711 | 77 | 270 | 3.0 | 4.0 | 0.00 | 0.00 | 0.00 | 80 | 1000.8 |
| 20260506215201 | 77 | 270 | 3.0 | 4.0 | 0.00 | 0.00 | 0.00 | 80 | 1000.7 |
| 20260506214652 | 78 | 270 | 4.0 | 6.0 | 0.00 | 0.00 | 0.00 | 79 | 1000.8 |
| 20260506214142 | 78 | 248 | 3.0 | 7.0 | 0.00 | 0.00 | 0.00 | 78 | 1000.7 |
| 20260506213123 | 79 | 248 | 4.0 | 6.0 | 0.00 | 0.00 | 0.00 | 78 | 1000.7 |
| 20260506212612 | 79 | 248 | 3.0 | 4.0 | 0.00 | 0.00 | 0.00 | 78 | 1000.6 |
| 20260506212100 | 79 | 270 | 3.0 | 4.0 | 0.00 | 0.00 | 0.00 | 77 | 1000.8 |
| 20260506211551 | 79 | 248 | 2.0 | 4.0 | 0.00 | 0.00 | 0.00 | 76 | 1000.9 |
| 20260506211040 | 80 | 270 | 2.0 | 4.0 | 0.00 | 0.00 | 0.00 | 76 | 1000.6 |
| 20260506210530 | 80 | 248 | 2.0 | 4.0 | 0.00 | 0.00 | 0.00 | 75 | 1000.8 |
| 20260506210025 | 81 | 248 | 2.0 | 4.0 | 0.00 | 0.00 | 0.00 | 74 | 1000.6 |
| 20260506205510 | 82 | 270 | 2.0 | 4.0 | 0.00 | 0.00 | 0.00 | 73 | 1000.4 |
| 20260506205000 | 82 | 270 | 2.0 | 6.0 | 0.00 | 0.00 | 0.00 | 72 | 1000.3 |
| 20260506204450 | 82 | 270 | 3.0 | 6.0 | 0.00 | 0.00 | 0.00 | 72 | 1000.4 |
| 20260506203940 | 83 | 270 | 3.0 | 6.0 | 0.00 | 0.00 | 0.00 | 72 | 1000.2 |
| 20260506203429 | 83 | 293 | 3.0 | 6.0 | 0.00 | 0.00 | 0.00 | 71 | 1000.1 |
| 20260506202933 | 83 | 293 | 3.0 | 6.0 | 0.00 | 0.00 | 0.00 | 71 | 1000.0 |
| 20260506202410 | 84 | 293 | 3.0 | 6.0 | 0.00 | 0.00 | 0.00 | 70 | 1000.2 |
| 20260506201900 | 84 | 293 | 2.0 | 8.0 | 0.00 | 0.00 | 0.00 | 70 | 1000.3 |
| 20260506201349 | 84 | 293 | 4.0 | 8.0 | 0.00 | 0.00 | 0.00 | 70 | 1000.3 |
| 20260506200838 | 84 | 293 | 4.0 | 9.0 | 0.00 | 0.00 | 0.00 | 70 | 1000.3 |
| 20260506200329 | 84 | 315 | 4.0 | 11.0 | 0.00 | 0.00 | 0.00 | 69 | 1000.0 |
| 20260506195819 | 84 | 315 | 6.0 | 11.0 | 0.00 | 0.00 | 0.00 | 69 | 1000.2 |
| 20260506195308 | 84 | 293 | 8.0 | 9.0 | 0.00 | 0.00 | 0.00 | 69 | 1000.2 |
| 20260506194759 | 84 | 338 | 6.0 | 8.0 | 0.00 | 0.00 | 0.00 | 69 | 1000.1 |
| 20260506194251 | 85 | 338 | 5.0 | 9.0 | 0.00 | 0.00 | 0.00 | 68 | 1000.7 |
| 20260506193738 | 85 | 315 | 4.0 | 9.0 | 0.00 | 0.00 | 0.00 | 68 | 1000.4 |
| 20260506193228 | 85 | 0 | 7.0 | 9.0 | 0.00 | 0.00 | 0.00 | 68 | 1000.4 |
| 20260506192718 | 85 | 315 | 4.0 | 13.0 | 0.00 | 0.00 | 0.00 | 69 | 1000.7 |
| 20260506192209 | 85 | 315 | 6.0 | 14.0 | 0.00 | 0.00 | 0.00 | 68 | 1000.8 |
| 20260506191658 | 85 | 315 | 9.0 | 15.0 | 0.00 | 0.00 | 0.00 | 67 | 1000.7 |
| 20260506191147 | 86 | 338 | 11.0 | 15.0 | 0.00 | 0.00 | 0.00 | 67 | 1000.9 |
| 20260506190637 | 85 | 338 | 8.0 | 11.0 | 0.00 | 0.00 | 0.00 | 68 | 1001.0 |
| 20260506190126 | 85 | 338 | 8.0 | 11.0 | 0.00 | 0.00 | 0.00 | 69 | 1001.1 |
| 20260506185619 | 84 | 0 | 6.0 | 11.0 | 0.00 | 0.00 | 0.00 | 70 | 1001.3 |
| 20260506185119 | 84 | 315 | 8.0 | 11.0 | 0.00 | 0.00 | 0.00 | 70 | 1001.6 |
| 20260506184557 | 85 | 315 | 6.0 | 11.0 | 0.00 | 0.00 | 0.00 | 70 | 1001.5 |
| 20260506184046 | 84 | 315 | 6.0 | 11.0 | 0.00 | 0.00 | 0.00 | 70 | 1001.8 |
| 20260506183536 | 84 | 338 | 7.0 | 14.0 | 0.00 | 0.00 | 0.00 | 70 | 1002.2 |
| 20260506183034 | 84 | 315 | 8.0 | 14.0 | 0.00 | 0.00 | 0.00 | 70 | 1001.9 |
| 20260506182516 | 84 | 315 | 8.0 | 15.0 | 0.00 | 0.00 | 0.00 | 69 | 1001.8 |
| 20260506182020 | 86 | 315 | 8.0 | 15.0 | 0.00 | 0.00 | 0.00 | 68 | 1001.8 |
| 20260506181455 | 86 | 338 | 9.0 | 15.0 | 0.00 | 0.00 | 0.00 | 68 | 1002.1 |
| 20260506180946 | 85 | 293 | 10.0 | 14.0 | 0.00 | 0.00 | 0.00 | 68 | 1001.9 |
| 20260506180435 | 84 | 293 | 10.0 | 14.0 | 0.00 | 0.00 | 0.00 | 71 | 1002.1 |
| 20260506175925 | 84 | 315 | 10.0 | 15.0 | 0.00 | 0.00 | 0.00 | 71 | 1002.0 |
| 20260506175415 | 84 | 338 | 11.0 | 17.0 | 0.00 | 0.00 | 0.00 | 70 | 1002.1 |
| 20260506174908 | 85 | 315 | 8.0 | 17.0 | 0.00 | 0.00 | 0.00 | 69 | 1002.3 |
| 20260506174355 | 85 | 315 | 10.0 | 17.0 | 0.00 | 0.00 | 0.00 | 69 | 1002.2 |
| 20260506173845 | 87 | 293 | 12.0 | 16.0 | 0.00 | 0.00 | 0.00 | 65 | 1002.3 |
| 20260506173335 | 87 | 315 | 11.0 | 16.0 | 0.00 | 0.00 | 0.00 | 67 | 1002.2 |
| 20260506172825 | 85 | 338 | 13.0 | 18.0 | 0.00 | 0.00 | 0.00 | 69 | 1002.5 |
| 20260506172314 | 85 | 315 | 12.0 | 20.0 | 0.00 | 0.00 | 0.00 | 69 | 1002.7 |
| 20260506171804 | 86 | 0 | 12.0 | 21.0 | 0.00 | 0.00 | 0.00 | 67 | 1002.9 |
| 20260506171254 | 86 | 315 | 13.0 | 21.0 | 0.00 | 0.00 | 0.00 | 68 | 1002.9 |
| 20260506170745 | 85 | 315 | 14.0 | 20.0 | 0.00 | 0.00 | 0.00 | 69 | 1003.1 |
| 20260506170234 | 85 | 338 | 10.0 | 20.0 | 0.00 | 0.00 | 0.00 | 70 | 1003.0 |
| 20260506165724 | 84 | 315 | 11.0 | 20.0 | 0.00 | 0.00 | 0.00 | 72 | 1003.1 |
| 20260506165213 | 84 | 338 | 11.0 | 16.0 | 0.00 | 0.00 | 0.00 | 71 | 1003.4 |
| 20260506164704 | 84 | 0 | 11.0 | 16.0 | 0.00 | 0.00 | 0.00 | 72 | 1003.6 |
| 20260506164153 | 83 | 0 | 11.0 | 15.0 | 0.00 | 0.00 | 0.00 | 74 | 1003.8 |
| 20260506163643 | 82 | 338 | 10.0 | 14.0 | 0.00 | 0.00 | 0.00 | 75 | 1003.7 |
| 20260506163133 | 82 | 338 | 10.0 | 16.0 | 0.00 | 0.00 | 0.00 | 76 | 1004.1 |
| 20260506162622 | 82 | 23 | 6.0 | 16.0 | 0.00 | 0.00 | 0.00 | 77 | 1004.0 |
| 20260506162126 | 82 | 0 | 11.0 | 16.0 | 0.00 | 0.00 | 0.00 | 77 | 1004.3 |
| 20260506161603 | 81 | 338 | 12.0 | 16.0 | 0.00 | 0.00 | 0.00 | 77 | 1004.2 |
| 20260506161105 | 82 | 338 | 9.0 | 14.0 | 0.00 | 0.00 | 0.00 | 75 | 1004.5 |
| 20260506160545 | 82 | 338 | 7.0 | 14.0 | 0.00 | 0.00 | 0.00 | 76 | 1004.4 |
| 20260506160045 | 82 | 338 | 9.0 | 14.0 | 0.00 | 0.00 | 0.00 | 76 | 1004.6 |